Temp
14 14 16 14 14 14 14 14 15 16 16 16 16 15 15 15 16 14 13 14 13 14 13 12 11 11 8 10 9 9 9 9 9 9 9 9 9 9 9 9 8 8 8 8
14 16 14 14 14 14 14 14 15 16 16 16 16 16 16 16 16 16 14 13 14 14 13 12 12 11 11 9 9 9 8 9 9 9 8 8 9 9 9 8 8 8 7 7
14 14 15 14 14 14 14 14 16 16 16 16 16 16 16 16 16 14 13 13 14 14 13 12 11 10 11 9 9 9 9 9 9 9 8 8 9 8 8 7 7 7 7 7
13 15 15 14 15 14 15 16 16 16 16 16 16 15 16 16 16 15 13 13 14 13 13 12 12 11 10 10 8 8 9 9 9 9 9 9 9 7 7 7 6 6 6 6
14 14 13 14 15 14 14 15 15 16 16 16 16 15 15 15 15 15 15 13 14 13 13 12 11 11 10 10 9 9 9 9 9 9 9 9 8 7 6 7 7 6 7 7
12 13 13 14 15 14 14 15 15 16 16 14 16 15 16 15 15 15 15 14 14 13 13 12 11 11 10 10 10 9 9 9 9 9 9 9 8 7 7 7 7 7 7 7
13 14 14 14 14 15 15 15 15 13 11 11 15 15 16 15 15 15 15 14 13 12 12 12 11 11 10 10 10 10 9 9 9 10 9 9 8 7 7 7 7 7 7 7
13 14 15 15 14 14 15 15 15 11 9 12 15 15 15 15 14 14 14 14 13 12 11 10 10 10 10 10 10 9 9 9 9 10 9 9 8 8 7 7 7 7 7 7
12 13 15 14 14 14 15 15 15 16 12 12 14 15 14 14 14 14 15 13 13 9 11 12 10 9 9 9 9 9 9 9 9 10 9 9 8 8 7 7 7 7 7 7
13 13 14 15 14 15 15 15 15 15 11 11 12 14 16 14 14 14 14 13 12 10 11 11 11 10 9 9 9 9 9 9 9 9 9 9 8 8 8 8 7 7 7 7
13 13 14 14 15 15 15 15 15 15 15 9 8 14 16 15 14 14 13 14 13 12 11 11 11 10 9 8 9 9 9 8 9 9 9 9 9 9 8 8 8 7 7 7
14 13 13 14 14 15 15 15 15 15 14 14 13 15 15 16 15 14 13 13 13 12 11 10 10 11 9 8 9 9 9 9 9 9 8 8 8 8 8 8 8 8 7 7
13 13 12 14 14 14 15 15 15 16 16 15 12 15 15 15 14 14 13 13 12 11 10 9 9 10 8 8 9 9 9 9 9 9 9 8 8 8 8 8 8 8 7 7
13 13 13 13 15 15 15 15 15 15 15 15 15 16 16 15 14 14 14 13 12 11 10 9 9 9 8 8 8 9 9 9 9 9 9 9 9 8 8 7 7 8 7 7
12 13 13 14 14 14 14 15 15 15 15 15 16 16 16 16 15 14 13 13 12 10 10 10 9 10 9 10 9 9 9 10 9 9 9 9 8 8 8 7 7 7 7 7
12 12 13 13 13 13 13 14 15 15 15 15 15 15 16 16 15 14 13 13 12 12 11 10 10 10 10 10 9 9 9 9 9 9 9 9 8 7 7 7 7 7 7 6
11 11 12 12 13 13 13 14 15 14 14 14 15 15 15 16 16 14 13 12 12 12 12 11 11 11 10 10 8 9 9 8 8 9 8 8 8 7 7 7 6 6 6 6
11 11 11 12 12 10 13 14 14 14 14 14 14 15 15 15 14 13 12 12 11 12 12 11 11 10 10 9 9 9 8 8 8 8 7 7 7 7 6 6 5 5 6 6
10 11 11 11 12 12 12 12 13 13 13 14 14 15 15 15 13 13 13 12 11 11 11 10 10 10 10 9 8 8 8 8 8 7 7 7 6 6 5 6 5 5 5 5
10 10 10 10 11 9 12 12 12 12 13 13 13 14 14 14 14 14 13 12 11 11 10 10 9 9 9 9 9 9 9 8 8 8 7 7 7 5 4 4 4 5 5 5
10 10 10 10 10 10 11 12 12 12 12 13 13 13 13 13 13 13 12 12 11 10 10 9 9 9 9 9 9 9 9 8 8 8 8 8 4 4 3 4 4 5 5 4
9 9 10 10 10 9 10 11 11 11 11 11 12 12 12 12 11 11 12 11 10 10 10 10 10 10 10 9 9 8 8 8 8 8 8 8 4 4 4 3 4 4 4 4
8 8 9 9 9 9 10 11 11 10 11 10 10 11 11 11 11 10 9 10 9 9 9 10 10 9 9 8 8 8 8 8 8 9 8 6 4 4 5 5 4 4 4 4
7 7 7 8 7 7 8 10 10 10 10 10 10 10 10 10 10 9 5 7 8 9 10 10 9 8 8 8 8 8 8 8 8 7 6 4 4 5 5 4 4 4 4 3
6 7 6 6 6 6 7 7 8 8 8 9 9 9 9 9 9 9 7 7 7 8 8 8 8 7 7 7 7 7 8 7 5 4 4 5 4 4 4 4 4 3 3 2
5 6 6 6 6 6 6 7 8 8 8 8 9 9 9 9 9 9 7 7 7 7 7 7 7 7 7 7 7 7 7 5 3 3 3 3 3 3 3 4 3 3 2 2
Height
3161 3163 3162 3164 3165 3166 3167 3166 3165 3166 3167 3166 3167 3162 3163 3164 3163 3163 3163 3166 3166 3164 3161 3160 3164 3164 3153 3162 3169 3168 3172 3171 3171 3171 3169 3167 3165 3160 3157 3156 3154 3153 3153 3153
3159 3159 3161 3162 3163 3164 3166 3166 3164 3163 3164 3164 3165 3162 3161 3161 3161 3160 3162 3164 3164 3164 3162 3162 3164 3162 3162 3158 3163 3162 3167 3168 3169 3169 3168 3166 3160 3155 3151 3149 3147 3147 3146 3146
3156 3159 3158 3160 3161 3163 3163 3164 3164 3165 3163 3162 3160 3159 3159 3160 3160 3160 3162 3161 3162 3163 3163 3162 3163 3162 3162 3159 3159 3158 3162 3165 3167 3167 3164 3161 3157 3151 3147 3143 3142 3141 3139 3140
3153 3156 3157 3159 3160 3162 3161 3161 3162 3162 3163 3161 3159 3159 3158 3155 3158 3158 3158 3158 3162 3161 3159 3160 3159 3159 3161 3161 3148 3157 3161 3164 3164 3162 3159 3155 3150 3144 3141 3137 3135 3134 3134 3133
3152 3152 3153 3154 3157 3158 3158 3159 3159 3159 3159 3159 3159 3158 3155 3155 3155 3156 3157 3158 3159 3160 3159 3159 3159 3157 3158 3158 3157 3157 3161 3164 3163 3160 3157 3151 3144 3140 3137 3133 3130 3130 3129 3129
3146 3150 3150 3151 3153 3155 3155 3155 3155 3155 3156 3156 3157 3156 3155 3155 3156 3155 3155 3157 3158 3159 3159 3160 3160 3158 3159 3157 3157 3160 3162 3162 3162 3159 3155 3149 3143 3139 3135 3131 3129 3128 3125 3125
3144 3143 3145 3148 3150 3152 3153 3154 3153 3155 3157 3156 3155 3154 3154 3155 3155 3154 3155 3158 3159 3160 3159 3161 3161 3160 3160 3159 3159 3160 3160 3162 3161 3157 3154 3149 3144 3139 3134 3132 3130 3127 3123 3122
3141 3139 3140 3143 3146 3150 3150 3151 3151 3157 3159 3154 3153 3152 3152 3154 3152 3152 3155 3156 3157 3160 3159 3160 3160 3161 3161 3160 3159 3158 3159 3158 3158 3156 3153 3150 3146 3141 3135 3134 3132 3128 3125 3122
3138 3136 3138 3140 3143 3146 3146 3146 3148 3149 3152 3153 3152 3151 3153 3151 3151 3151 3151 3152 3156 3161 3162 3159 3158 3158 3159 3157 3158 3159 3158 3156 3156 3156 3153 3150 3147 3144 3139 3136 3133 3131 3127 3124
3136 3135 3135 3138 3140 3142 3143 3142 3144 3145 3152 3153 3148 3148 3149 3148 3150 3150 3150 3149 3153 3149 3152 3158 3158 3155 3157 3156 3156 3156 3156 3155 3155 3155 3153 3150 3147 3144 3142 3139 3135 3132 3128 3125
3132 3136 3132 3134 3136 3138 3140 3138 3140 3143 3144 3144 3149 3145 3145 3144 3145 3145 3147 3148 3146 3139 3142 3152 3154 3154 3154 3154 3155 3153 3152 3153 3153 3154 3152 3150 3147 3145 3143 3139 3136 3133 3130 3126
3127 3131 3129 3130 3133 3135 3136 3136 3136 3139 3141 3140 3140 3140 3140 3140 3142 3143 3145 3145 3143 3142 3142 3148 3151 3151 3153 3152 3152 3152 3151 3150 3151 3152 3152 3150 3147 3145 3143 3141 3137 3134 3131 3129
3123 3125 3128 3128 3131 3131 3133 3133 3133 3134 3136 3136 3138 3135 3135 3136 3137 3139 3139 3140 3139 3137 3140 3145 3147 3148 3150 3150 3149 3150 3150 3150 3151 3151 3150 3149 3147 3145 3144 3141 3138 3136 3133 3131
3121 3121 3123 3123 3125 3128 3130 3131 3131 3132 3133 3133 3131 3132 3131 3132 3132 3134 3138 3139 3137 3136 3139 3142 3145 3148 3147 3147 3147 3148 3148 3149 3149 3150 3149 3149 3146 3144 3143 3141 3139 3137 3134 3132
3120 3119 3119 3120 3121 3124 3126 3128 3128 3129 3130 3128 3128 3129 3128 3129 3129 3133 3136 3138 3136 3137 3136 3138 3142 3144 3145 3144 3146 3147 3147 3148 3149 3149 3148 3148 3146 3144 3142 3140 3138 3137 3135 3133
3118 3118 3117 3117 3119 3122 3123 3123 3124 3126 3127 3125 3125 3126 3126 3124 3127 3131 3135 3136 3134 3135 3137 3141 3143 3144 3145 3145 3144 3146 3147 3148 3148 3148 3147 3145 3145 3143 3141 3138 3137 3137 3135 3133
3115 3115 3115 3115 3117 3119 3121 3121 3121 3123 3124 3124 3122 3124 3124 3123 3124 3129 3132 3132 3133 3134 3139 3142 3144 3145 3143 3143 3141 3145 3146 3147 3146 3145 3144 3142 3141 3141 3139 3136 3136 3136 3135 3134
3112 3112 3112 3113 3114 3117 3118 3118 3119 3120 3121 3121 3121 3122 3122 3123 3125 3128 3131 3133 3133 3136 3139 3140 3143 3142 3142 3141 3141 3142 3142 3142 3143 3142 3140 3139 3138 3138 3137 3136 3135 3135 3134 3134
3108 3109 3109 3110 3110 3111 3114 3115 3117 3116 3118 3118 3118 3119 3119 3122 3125 3127 3129 3129 3131 3133 3136 3139 3139 3138 3138 3139 3140 3140 3139 3140 3140 3138 3138 3136 3135 3136 3135 3135 3134 3134 3133 3132
3104 3105 3107 3107 3108 3109 3109 3113 3114 3114 3112 3114 3115 3116 3118 3120 3122 3124 3125 3126 3127 3129 3131 3133 3134 3134 3136 3137 3138 3136 3136 3135 3136 3135 3133 3132 3132 3132 3132 3132 3132 3131 3131 3130
3099 3100 3101 3103 3104 3105 3105 3109 3110 3112 3114 3109 3110 3112 3114 3118 3122 3123 3123 3123 3123 3125 3126 3127 3128 3131 3133 3134 3133 3132 3131 3131 3130 3129 3128 3126 3127 3129 3128 3128 3129 3129 3129 3128
3094 3096 3098 3099 3100 3102 3102 3106 3110 3109 3108 3107 3108 3110 3111 3113 3114 3119 3119 3121 3122 3122 3123 3126 3128 3129 3128 3128 3127 3127 3127 3125 3125 3124 3122 3121 3123 3124 3125 3126 3125 3126 3125 3125
3092 3093 3094 3097 3096 3096 3099 3102 3104 3104 3106 3107 3108 3109 3109 3110 3111 3114 3115 3119 3120 3120 3122 3123 3123 3124 3124 3123 3123 3123 3121 3120 3119 3118 3115 3115 3118 3119 3121 3120 3122 3119 3120 3121
3087 3088 3089 3092 3092 3093 3096 3098 3100 3101 3103 3106 3106 3106 3108 3110 3110 3112 3103 3109 3118 3117 3119 3120 3121 3120 3119 3118 3117 3116 3116 3115 3113 3111 3111 3113 3114 3117 3117 3117 3117 3117 3116 3116
3086 3087 3087 3088 3090 3091 3093 3095 3097 3097 3098 3101 3103 3104 3105 3106 3107 3107 3105 3112 3117 3117 3116 3116 3116 3115 3114 3113 3113 3112 3110 3108 3107 3108 3110 3110 3111 3114 3115 3115 3114 3114 3114 3114
3082 3084 3086 3087 3088 3090 3092 3093 3094 3096 3096 3098 3099 3100 3100 3099 3099 3097 3101 3106 3110 3111 3112 3112 3111 3111 3110 3109 3108 3107 3105 3105 3106 3107 3108 3110 3111 3111 3111 3112 3113 3112 3112 3111
Wind_Speed
13 11 11 2 4 11 9 9 13 5 15 14 14 12 11 12 17 21 25 14 17 13 16 26 23 26 39 30 21 14 12 14 11 11 12 14 17 19 18 23 24 24 24 24
13 14 6 7 7 7 8 11 9 13 14 15 16 13 12 8 11 17 20 11 17 11 12 20 18 15 15 24 21 16 10 10 10 10 13 19 17 20 22 26 26 27 26 25
13 6 14 10 8 6 8 14 12 15 16 18 15 9 7 5 7 15 18 19 17 14 8 11 13 15 5 24 15 21 13 8 7 9 13 16 18 18 20 24 24 26 24 26
14 15 11 8 7 5 11 5 11 15 15 11 11 4 6 12 12 10 17 21 12 5 5 10 4 9 8 13 28 15 7 6 8 11 15 18 22 20 21 19 19 20 24 23
9 7 8 12 11 11 15 12 14 12 12 10 10 6 6 13 9 6 8 15 8 4 2 3 2 5 5 5 5 4 5 4 8 12 15 19 22 21 16 15 12 14 16 17
18 17 19 17 16 12 12 18 17 15 8 5 9 6 9 9 7 8 9 8 8 3 2 2 3 2 6 5 4 6 4 4 7 11 14 18 20 13 11 9 9 12 14 14
19 22 22 20 17 13 13 12 5 3 2 6 7 6 5 7 7 6 10 5 7 5 3 4 3 3 2 3 5 7 2 4 7 11 12 16 12 12 12 12 9 10 9 10
10 13 9 20 19 12 13 14 10 6 4 4 7 4 6 8 13 8 7 12 9 7 3 4 5 3 1 1 5 3 2 4 6 10 11 12 11 13 15 13 10 9 6 3
7 10 8 11 11 6 6 15 15 12 1 1 6 9 4 8 16 10 14 18 5 12 1 4 7 4 5 1 2 6 5 5 5 8 8 10 10 14 11 13 13 9 7 3
23 21 12 13 13 14 11 17 8 8 4 3 4 4 9 13 10 11 17 18 10 8 23 13 5 6 2 2 3 4 6 4 3 5 7 10 11 12 13 13 13 13 11 7
31 30 19 15 12 12 11 12 14 10 5 7 3 6 6 8 14 16 17 21 15 10 23 18 8 9 7 5 6 5 3 6 6 4 7 9 11 13 14 13 13 12 13 12
27 14 25 21 15 14 17 16 14 17 7 6 5 11 11 13 15 19 17 12 10 2 11 17 13 3 8 6 5 5 1 2 8 6 7 7 9 11 13 14 13 13 13 14
11 24 31 29 26 16 9 10 15 18 24 19 6 13 13 18 21 18 16 13 10 8 15 15 14 11 8 4 4 8 7 5 4 5 7 8 9 10 11 12 14 13 12 13
6 15 27 29 23 6 11 7 5 3 5 16 22 21 20 18 25 21 16 11 9 12 15 10 12 11 6 5 6 8 10 8 5 4 7 10 11 13 12 10 11 11 8 9
5 9 7 18 26 23 23 22 17 11 12 14 14 15 17 17 23 20 16 10 7 15 13 20 17 12 9 6 3 3 8 8 8 7 9 10 13 14 14 11 8 7 4 4
6 5 4 2 6 8 8 12 20 14 9 10 12 17 19 13 12 20 16 9 10 19 23 20 20 12 7 3 1 1 3 5 8 8 11 11 12 14 12 11 6 5 3 2
6 5 6 5 7 9 12 10 13 11 5 11 14 15 15 15 17 16 12 10 18 17 18 4 17 12 6 6 5 8 10 10 12 14 16 17 17 14 12 8 5 4 2 0
9 7 5 5 6 2 8 7 9 9 11 11 13 15 12 14 13 17 15 16 22 15 17 12 15 10 8 8 10 14 15 14 17 18 20 20 21 17 13 8 4 4 5 3
10 11 5 4 7 9 6 3 5 8 8 8 9 10 10 14 23 19 17 18 18 11 15 10 10 7 8 13 18 19 19 19 22 23 23 24 20 18 13 8 5 8 7 6
19 11 9 6 4 5 6 10 12 14 16 11 9 11 11 19 25 19 18 13 12 14 17 14 9 9 13 17 21 22 22 22 25 26 27 26 22 17 13 12 6 9 9 9
20 21 16 12 6 6 9 10 10 8 12 11 10 11 15 18 14 14 14 14 14 14 12 11 11 14 19 21 21 22 23 24 26 28 29 28 20 16 14 15 12 10 10 10
12 13 17 15 13 10 12 13 12 10 7 4 6 14 17 22 17 16 15 17 16 13 12 13 15 19 21 23 24 24 23 24 28 30 29 25 17 15 18 15 14 16 10 12
12 12 12 14 10 11 15 16 15 13 12 6 8 12 19 24 23 19 21 18 17 13 13 16 19 23 25 24 23 23 24 27 27 27 19 12 17 18 15 20 17 12 11 9
7 12 12 13 12 12 13 17 16 17 18 13 15 12 11 20 26 23 23 10 13 13 18 22 24 24 23 22 22 23 25 25 25 10 4 6 13 8 25 12 10 15 16 14
11 11 9 13 10 10 9 8 9 10 13 16 16 15 13 16 19 30 20 13 14 20 19 20 21 20 20 21 24 24 23 19 12 8 10 11 11 7 11 12 13 13 14 15
9 12 12 10 10 6 3 2 7 11 10 10 11 14 19 22 21 12 16 10 12 20 20 19 19 20 21 22 21 21 15 9 5 7 8 8 13 13 13 11 15 13 11 10
Wind_Direction
229 234 238 210 230 238 241 265 297 313 331 332 324 299 298 291 310 253 242 266 256 283 234 215 217 256 288 211 213 215 251 265 274 276 280 281 280 278 277 277 274 268 263 259
237 243 244 211 210 214 246 283 298 313 336 336 326 292 305 327 313 282 263 250 278 306 275 228 230 255 318 189 203 202 228 255 259 274 284 288 292 289 292 283 272 269 262 263
241 175 180 177 186 239 253 274 286 300 321 330 315 290 297 337 340 249 232 242 269 301 265 259 274 245 234 194 187 184 198 239 250 288 298 296 299 296 289 278 276 270 260 268
254 223 226 220 215 278 292 290 294 298 301 316 321 276 292 304 323 259 228 241 277 308 268 309 293 243 245 230 217 156 173 237 298 321 323 323 318 316 302 288 274 267 266 260
233 174 192 221 203 296 284 300 290 297 292 289 287 280 322 310 284 287 236 230 278 269 106 111 155 260 261 228 198 164 198 252 317 332 328 334 330 324 306 292 283 275 266 258
261 246 246 233 217 253 273 295 281 278 284 267 297 314 341 336 298 264 232 217 225 202 80 155 181 225 228 224 177 188 200 318 326 333 337 347 341 351 351 341 315 296 271 264
261 263 255 244 240 222 271 278 270 317 324 226 306 302 299 305 250 260 224 248 184 162 121 333 273 308 190 192 214 183 154 318 333 340 350 360 1 357 7 355 335 319 302 269
271 287 248 218 236 268 280 267 231 193 188 238 304 264 292 298 231 247 236 214 219 192 159 253 268 274 184 178 179 146 279 316 328 339 360 9 11 11 30 20 9 358 351 291
233 259 267 222 217 228 267 291 269 245 227 254 261 277 290 229 231 250 211 198 230 241 202 311 262 225 227 344 205 223 313 305 322 328 4 10 18 25 32 15 10 13 16 21
252 269 296 228 244 245 293 285 229 217 130 226 230 230 285 224 208 196 210 207 303 103 201 230 245 196 186 313 264 259 297 253 274 311 3 10 4 358 2 8 11 6 357 7
249 253 275 276 272 239 280 295 226 243 206 165 191 246 281 235 226 237 227 232 291 71 180 200 205 211 220 273 292 256 279 255 239 308 347 359 2 359 353 352 2 10 12 12
243 244 258 275 271 257 276 289 259 238 239 218 238 263 251 257 230 236 228 253 287 230 169 189 198 207 244 286 279 213 0 152 200 268 311 333 347 350 350 355 1 6 20 25
253 234 246 267 270 274 253 279 262 254 251 258 237 273 276 238 235 231 237 261 279 247 187 200 204 202 205 271 269 219 218 182 210 270 308 325 336 339 335 348 359 1 25 27
279 237 235 234 249 233 208 225 347 18 303 279 261 274 278 251 233 238 245 252 296 253 208 210 189 217 215 256 273 221 218 225 235 281 311 320 329 330 326 336 347 355 15 37
283 263 222 239 254 256 258 257 268 291 313 300 294 271 284 292 254 241 232 258 247 209 223 194 211 221 225 232 259 196 214 240 256 276 294 309 321 326 321 319 331 334 346 30
287 251 238 220 234 251 251 230 251 281 309 302 285 302 283 291 237 224 224 228 159 150 162 185 213 222 235 211 156 84 238 267 265 267 292 309 328 330 327 310 306 310 310 39
279 262 246 241 262 275 269 250 254 263 293 318 312 290 315 293 267 206 216 200 166 164 164 196 224 219 247 274 288 259 255 263 281 292 303 310 323 334 328 320 288 283 231 75
249 253 236 209 248 188 238 232 248 262 270 303 302 292 296 275 211 194 195 187 183 185 188 202 202 218 251 284 290 288 282 283 285 287 289 296 309 315 308 308 277 204 236 283
236 232 218 225 226 266 231 193 254 271 275 281 295 292 266 210 193 199 199 195 200 208 199 202 209 228 262 278 277 279 283 282 283 285 283 291 293 292 281 268 241 231 251 287
238 229 219 201 197 204 226 242 259 274 265 263 279 291 243 209 200 219 214 194 203 200 209 223 240 269 277 277 272 273 277 275 273 279 283 286 282 277 266 266 250 236 248 290
227 244 252 249 250 233 221 225 252 282 268 259 255 234 229 230 236 242 227 212 215 215 212 225 247 263 268 269 271 271 272 273 275 281 285 286 271 259 250 251 265 240 258 278
235 243 250 259 246 245 243 250 258 270 267 283 234 214 225 219 240 249 219 221 217 212 216 237 252 261 266 268 269 270 270 275 279 283 281 275 249 251 253 240 249 248 253 287
242 248 243 241 245 248 245 255 241 245 257 276 262 237 224 228 242 235 208 210 214 220 235 247 260 262 265 270 273 273 276 281 285 285 278 248 230 241 242 238 257 257 275 271
231 246 232 239 228 224 216 227 235 253 267 271 270 279 271 261 256 229 279 244 229 234 250 257 261 264 266 267 269 275 281 284 285 272 260 203 249 244 233 225 226 252 277 289
225 241 217 206 210 207 211 221 233 244 253 265 271 273 277 284 277 293 274 211 252 263 260 260 262 264 268 272 277 278 280 281 273 208 209 211 214 226 250 260 241 267 265 275
204 224 236 219 218 203 126 217 246 251 253 266 279 287 293 296 296 283 190 223 248 256 257 259 263 267 271 273 274 276 277 244 179 177 196 223 227 231 244 259 261 269 268 268